File timestamp: Tue Sep 13 00:00:00 2016, Internal temp: 15.869140625
1473724801, -0.0165967121720314, -0.134910434484482, 0.161890402436256, 32144, 31371, 23437, 166.077224731445
1473724802, -0.0190163664519787, -0.134189441800117, 0.162118926644325, 32138, 31385, 23444, NaN
1473724803, -0.0207555890083313, -0.13316835463047, 0.162405267357826, 32138, 31379, 23436, NaN
1473724804, -0.0213674679398537, -0.133220374584198, 0.162347108125687, 32156, 31386, 23436, NaN
1473724805, -0.0201462879776955, -0.134405881166458, 0.162676587700844, 32138, 31375, 23433, NaN
1473724806, -0.018256139010191, -0.134567603468895, 0.163158178329468, 32144, 31392, 23425, NaN
1473724806, -0.0156313143670559, -0.134442895650864, 0.163252800703049, 32135, 31380, 23435, NaN
1473724807.008, -0.0125238681212068, -0.134471818804741, 0.163004711270332, 32146, 31375, 23432, NaN
1473724808.008, -0.00882603786885738, -0.134031221270561, 0.164100855588913, 32158, 31372, 23424, NaN
1473724809.008, -0.00430176174268126, -0.133439928293228, 0.16393369436264, 32144, 31380, 23437, NaN
1473724810.008, 0.000195986736798659, -0.133995443582535, 0.163847863674164, 32143, 31367, 23447, NaN
1473724810.008, 0.00499145453795791, -0.135173127055168, 0.163604006171227, 32150, 31379, 23441, NaN
1473724811.016, 0.009903266094625, -0.134936556220055, 0.16355474293232, 32160, 31375, 23437, NaN
1473724812.016, 0.015047799795866, -0.135137915611267, 0.16308431327343, 32135, 31378, 23424, NaN
1473724813.016, 0.0196207519620657, -0.134872153401375, 0.163123100996017, 32155, 31376, 23432, NaN
1473724814.016, 0.0235529989004135, -0.134773716330528, 0.163357123732567, 32144, 31375, 23435, NaN
1473724814.016, 0.0270660873502493, -0.134750291705132, 0.163355469703674, 32151, 31376, 23435, NaN
1473724815.022, 0.0303587205708027, -0.134283244609833, 0.162747204303741, 32142, 31381, 23442, NaN
1473724816.022, 0.0330024138092995, -0.134528577327728, 0.163281336426735, 32149, 31391, 23433, NaN
1473724817.022, 0.0347420573234558, -0.134433686733246, 0.164050802588463, 32150, 31373, 23432, NaN
1473724818.022, 0.0357640124857426, -0.134739130735397, 0.164461106061935, 32150, 31385, 23443, NaN
1473724818.022, 0.0361470356583595, -0.133508026599884, 0.165059119462967, 32146, 31371, 23438, NaN
1473724819.026, 0.0363426953554153, -0.134109258651733, 0.165064871311188, 32153, 31374, 23434, NaN
1473724820.026, 0.0357503369450569, -0.134995400905609, 0.165967270731926, 32153, 31369, 23437, NaN
1473724821.026, 0.0349772125482559, -0.134900733828545, 0.165894120931625, 32156, 31373, 23434, NaN
1473724822.026, 0.0340390019118786, -0.134989514946938, 0.166025817394257, 32160, 31374, 23437, NaN
1473724823.026, 0.0319397114217281, -0.135453626513481, 0.165707841515541, 32147, 31383, 23429, NaN
1473724824.026, 0.0293066650629044, -0.134722322225571, 0.165790364146233, 32148, 31383, 23435, NaN
1473724825.026, 0.0263271406292915, -0.134274080395699, 0.16613332927227, 32162, 31383, 23429, NaN
1473724826.026, 0.0215319227427244, -0.135134533047676, 0.166701719164848, 32149, 31376, 23423, NaN
1473724827.026, 0.0167162455618382, -0.134998992085457, 0.166611030697823, 32155, 31379, 23429, NaN
1473724828.026, 0.0125268995761871, -0.135211139917374, 0.166063368320465, 32159, 31376, 23440, NaN
1473724829.026, 0.00821122620254755, -0.135595142841339, 0.166258901357651, 32156, 31376, 23431, NaN
1473724830.026, 0.0036764566320926, -0.135464578866959, 0.165724009275436, 32141, 31373, 23427, NaN
1473724831.026, 0.000498741050250828, -0.135543331503868, 0.164829388260841, 32143, 31376, 23431, NaN
1473724832.036, -0.00358910672366619, -0.135690167546272, 0.163978204131126, 32139, 31379, 23439, NaN
1473724833.036, -0.00559708150103688, -0.135660722851753, 0.163105607032776, 32153, 31372, 23444, NaN
1473724834.036, -0.00848142709583044, -0.135508954524994, 0.162274777889252, 32152, 31369, 23436, NaN
1473724835.036, -0.0123912263661623, -0.13479571044445, 0.162426859140396, 32154, 31384, 23432, NaN
1473724835.036, -0.0139553472399712, -0.135247766971588, 0.162779450416565, 32151, 31384, 23435, NaN
1473724836.044, -0.00975438859313726, -0.135511577129364, 0.162287324666977, 32128, 31397, 23435, NaN
1473724837.044, 0.00283885886892676, -0.135353714227676, 0.162477344274521, 32153, 31379, 23431, NaN
1473724838.044, 0.0238499641418457, -0.135026380419731, 0.162206783890724, 32136, 31387, 23436, NaN
1473724839.044, 0.0523916147649288, -0.135488674044609, 0.162239477038383, 32150, 31369, 23433, NaN
1473724840.044, 0.0861499607563019, -0.135626539587975, 0.1631860435009, 32158, 31384, 23427, NaN
1473724841.044, 0.0593590773642063, -0.135330855846405, 0.16327278316021, 32134, 31383, 23438, NaN
1473724842.044, 0.0310502275824547, -0.135241240262985, 0.164354979991913, 32139, 31375, 23449, NaN
1473724843.044, 0.00734509946778417, -0.135220989584923, 0.165121912956238, 32141, 31387, 23440, NaN
1473724844.044, -0.0121518643572927, -0.13510337471962, 0.165284365415573, 32147, 31380, 23434, NaN
1473724845.044, -0.0278278812766075, -0.13527874648571, 0.165307268500328, 32161, 31383, 23432, NaN
1473724846.044, -0.0400599017739296, -0.134679540991783, 0.165928915143013, 32142, 31378, 23433, NaN
1473724847.044, -0.049212746322155, -0.134042471647263, 0.166410371661186, 32154, 31375, 23437, NaN
1473724848.044, -0.0556373111903667, -0.133998304605484, 0.166731745004654, 32161, 31377, 23427, NaN
1473724849.044, -0.0596689879894257, -0.13491016626358, 0.16795988380909, 32156, 31377, 23427, NaN
1473724850.044, -0.0616262070834637, -0.135627031326294, 0.167451843619347, 32149, 31384, 23432, NaN
1473724851.044, -0.0618092603981495, -0.135829195380211, 0.16800756752491, 32145, 31395, 23435, NaN
1473724852.044, -0.0604993067681789, -0.134989559650421, 0.16840460896492, 32144, 31373, 23435, NaN
1473724853.044, -0.0579576566815376, -0.135841742157936, 0.16721086204052, 32147, 31383, 23427, NaN
1473724854.044, -0.0544252544641495, -0.134948402643204, 0.166744276881218, 32131, 31380, 23444, NaN
1473724855.044, -0.0501224659383297, -0.134987741708755, 0.166975572705269, 32144, 31383, 23449, 165.918350219727
1473724856.044, -0.0452490150928497, -0.135161697864532, 0.167467206716537, 32153, 31379, 23421, NaN
1473724857.044, -0.0399841852486134, -0.135707885026932, 0.168039888143539, 32147, 31380, 23429, NaN
1473724858.044, -0.0344872064888477, -0.134950280189514, 0.1677226126194, 32151, 31373, 23433, NaN
1473724859.054, -0.0288978163152933, -0.135368451476097, 0.166955634951591, 32153, 31374, 23440, NaN
1473724859.054, -0.023336973041296, -0.136101424694061, 0.167765200138092, 32154, 31400, 23416, NaN
1473724860.062, -0.0179077163338661, -0.136066302657127, 0.167500391602516, 32144, 31381, 23435, NaN
1473724861.062, -0.0126961348578334, -0.136105000972748, 0.167656898498535, 32139, 31370, 23435, NaN
1473724862.062, -0.00777242425829172, -0.135905265808105, 0.167928487062454, 32148, 31379, 23436, NaN
1473724863.062, -0.00319202081300318, -0.136431381106377, 0.167712062597275, 32152, 31382, 23435, NaN
1473724863.062, 0.00100321718491614, -0.136154502630234, 0.167701259255409, 32138, 31388, 23434, NaN
1473724864.07, 0.00478379754349589, -0.134875908493996, 0.167889773845673, 32144, 31368, 23438, NaN
1473724865.07, 0.00813136622309685, -0.134594917297363, 0.16833122074604, 32161, 31361, 23434, NaN
1473724866.07, 0.0110374903306365, -0.135228157043457, 0.167806461453438, 32135, 31388, 23430, NaN
1473724867.07, 0.0135024469345808, -0.134652554988861, 0.167948052287102, 32145, 31385, 23444, NaN
1473724867.072, 0.0155340582132339, -0.135152265429497, 0.167416214942932, 32147, 31370, 23451, NaN
1473724868.076, 0.0171465575695038, -0.135339349508286, 0.168006658554077, 32140, 31359, 23429, NaN
1473724869.076, 0.0183595195412636, -0.135333478450775, 0.167712166905403, 32132, 31377, 23443, NaN
1473724870.076, 0.0190126728266478, -0.135414376854897, 0.167860805988312, 32149, 31363, 23441, NaN
1473724871.076, 0.0169983059167862, -0.135295212268829, 0.167995601892471, 32135, 31368, 23441, NaN
1473724871.076, 0.0120834233239293, -0.135345831513405, 0.169158041477203, 32142, 31373, 23439, NaN
1473724872.08, 0.00562766892835498, -0.136828988790512, 0.168601006269455, 32133, 31366, 23439, NaN
1473724873.08, -0.000904548563994467, -0.137203946709633, 0.168290957808495, 32155, 31372, 23433, NaN
1473724874.08, -0.00707006920129061, -0.137110993266106, 0.168045699596405, 32147, 31369, 23440, NaN
1473724875.08, -0.013455799780786, -0.138041362166405, 0.16816757619381, 32154, 31381, 23424, NaN
1473724875.08, -0.0194999668747187, -0.137771636247635, 0.168274417519569, 32141, 31376, 23446, NaN
1473724876.082, -0.0247378908097744, -0.137778654694557, 0.168375164270401, 32145, 31379, 23435, NaN
1473724877.082, -0.0281956046819687, -0.138332515954971, 0.16779188811779, 32147, 31377, 23424, NaN
1473724878.082, -0.0282661411911249, -0.138739794492722, 0.167696014046669, 32154, 31381, 23430, NaN
1473724879.082, -0.0271080546081066, -0.139346212148666, 0.168217986822128, 32148, 31377, 23434, NaN
1473724880.082, -0.024769002571702, -0.139362841844559, 0.167671501636505, 32141, 31378, 23432, NaN
1473724881.082, -0.0211904253810644, -0.139041572809219, 0.167176276445389, 32156, 31366, 23437, NaN
1473724882.082, -0.0163926165550947, -0.138524621725082, 0.166948094964027, 32146, 31359, 23436, NaN
1473724883.092, -0.00999672431498766, -0.13871967792511, 0.166930451989174, 32142, 31377, 23442, NaN
1473724883.092, -0.00334590533748269, -0.138925418257713, 0.167335599660873, 32156, 31374, 23434, NaN
1473724884.1, 0.00424977298825979, -0.138868361711502, 0.167475014925003, 32136, 31377, 23431, NaN
1473724885.1, 0.012621914036572, -0.139290928840637, 0.168127998709679, 32148, 31385, 23430, NaN
1473724886.1, 0.0200667735189199, -0.138814672827721, 0.168726697564125, 32156, 31386, 23425, NaN
1473724887.1, 0.0276442803442478, -0.138611048460007, 0.169224783778191, 32148, 31377, 23433, NaN
1473724887.1, 0.0341400764882565, -0.138511002063751, 0.169513955712318, 32149, 31391, 23437, NaN
1473724888.108, 0.0398242212831974, -0.138432577252388, 0.169326439499855, 32150, 31374, 23419, NaN
1473724889.108, 0.0451214388012886, -0.138654857873917, 0.170126229524612, 32142, 31386, 23436, NaN
1473724890.108, 0.0480230748653412, -0.138730943202972, 0.169541329145432, 32150, 31383, 23432, NaN
1473724891.108, 0.0492903739213943, -0.138265058398247, 0.16966637969017, 32136, 31383, 23428, NaN
1473724892.108, 0.0494986772537231, -0.137974187731743, 0.170312479138374, 32130, 31377, 23427, NaN
1473724893.108, 0.049541350454092, -0.138101190328598, 0.170287296175957, 32154, 31378, 23429, NaN
1473724894.108, 0.0501644983887672, -0.137471556663513, 0.17019359767437, 32143, 31376, 23433, NaN
1473724895.108, 0.0506427399814129, -0.137830585241318, 0.170000657439232, 32138, 31373, 23430, NaN
1473724896.108, 0.0507830269634724, -0.137645870447159, 0.169856756925583, 32146, 31393, 23437, NaN
1473724897.108, 0.0495905168354511, -0.137680217623711, 0.169134110212326, 32155, 31385, 23436, NaN
1473724898.108, 0.0463358536362648, -0.137539282441139, 0.168818548321724, 32153, 31383, 23447, NaN
1473724899.108, 0.0402347110211849, -0.137408196926117, 0.168186217546463, 32148, 31377, 23439, NaN
1473724900.108, 0.0338733233511448, -0.137426167726517, 0.168309360742569, 32161, 31391, 23435, NaN
1473724901.108, 0.0281706303358078, -0.136576890945435, 0.168668121099472, 32136, 31360, 23429, NaN
1473724902.108, 0.0229693073779345, -0.136858761310577, 0.1688402146101, 32136, 31391, 23443, NaN
1473724903.108, 0.0186628848314285, -0.136570319533348, 0.168803930282593, 32138, 31368, 23438, NaN
1473724904.108, 0.0154009126126766, -0.136134579777718, 0.169182062149048, 32164, 31374, 23433, NaN
1473724905.108, 0.0127600319683552, -0.135470658540726, 0.170150369405746, 32150, 31365, 23428, NaN
1473724906.108, 0.00901082530617714, -0.13543701171875, 0.170014962553978, 32150, 31379, 23419, NaN
1473724907.108, 0.00390011188574135, -0.134566739201546, 0.169918522238731, 32141, 31393, 23434, NaN
1473724908.108, -0.00306823966093361, -0.133476048707962, 0.169222474098206, 32156, 31387, 23439, 164.414916992188
1473724909.108, -0.0108294738456607, -0.133004412055016, 0.169823318719864, 32163, 31392, 23429, NaN
1473724910.108, -0.016830001026392, -0.132590860128403, 0.170214578509331, 32151, 31373, 23427, NaN
1473724911.116, -0.0209845621138811, -0.132083550095558, 0.170386612415314, 32155, 31377, 23426, NaN
1473724911.116, -0.0230016522109509, -0.131869480013847, 0.170805692672729, 32138, 31377, 23438, NaN
1473724912.124, -0.0233433563262224, -0.132467180490494, 0.170234248042107, 32145, 31379, 23434, NaN
1473724913.124, -0.0236166678369045, -0.132605731487274, 0.170194819569588, 32152, 31373, 23428, NaN
1473724914.124, -0.0234331507235765, -0.132819563150406, 0.170321434736252, 32152, 31366, 23434, NaN
1473724915.124, -0.0236645489931107, -0.13351383805275, 0.170297056436539, 32150, 31370, 23431, NaN
1473724915.124, -0.0248158443719149, -0.132964313030243, 0.170931950211525, 32161, 31383, 23430, NaN
1473724916.132, -0.0266392603516579, -0.133290246129036, 0.171141862869263, 32152, 31370, 23430, NaN
1473724917.132, -0.0282196793705225, -0.133940726518631, 0.171717017889023, 32140, 31373, 23444, NaN
1473724918.132, -0.0272070933133364, -0.134441494941711, 0.172361299395561, 32151, 31378, 23438, NaN
1473724919.132, -0.0197575390338898, -0.133671745657921, 0.172896862030029, 32156, 31364, 23443, NaN
1473724919.132, -0.00432226993143559, -0.134298011660576, 0.173160210251808, 32142, 31374, 23437, NaN
1473724920.138, 0.0201819241046906, -0.134822234511375, 0.172949656844139, 32154, 31378, 23431, NaN
1473724921.138, 0.0528103746473789, -0.135777398943901, 0.172245919704437, 32159, 31371, 23425, NaN
1473724922.138, 0.092075489461422, -0.134965881705284, 0.172677218914032, 32138, 31390, 23441, NaN
1473724923.138, 0.11345949023962, -0.135568395256996, 0.172630652785301, 32152, 31369, 23438, NaN
1473724923.138, 0.0728848427534103, -0.136228963732719, 0.17334409058094, 32157, 31383, 23445, NaN
1473724924.142, 0.0385333821177483, -0.136659070849419, 0.174394771456718, 32163, 31365, 23431, NaN
1473724925.142, 0.00988267827779055, -0.137192621827126, 0.174355283379555, 32152, 31386, 23437, NaN
1473724926.122, -0.0135774658992887, -0.137900799512863, 0.174723729491234, 32150, 31388, 23424, NaN
1473724927.122, -0.0323430262506008, -0.137944281101227, 0.174510911107063, 32137, 31390, 23434, NaN
1473724928.122, -0.0468937419354916, -0.137932434678078, 0.174845576286316, 32144, 31366, 23430, NaN
1473724929.122, -0.0576911345124245, -0.138619989156723, 0.174740821123123, 32157, 31378, 23428, NaN
1473724930.122, -0.0651766583323479, -0.137908592820168, 0.174830943346024, 32145, 31380, 23430, NaN
1473724931.122, -0.0697700381278992, -0.137619569897652, 0.175361007452011, 32153, 31366, 23437, NaN
1473724932.122, -0.0718678086996078, -0.137034997344017, 0.175939872860909, 32136, 31375, 23435, NaN
1473724933.122, -0.0718421339988708, -0.137332126498222, 0.175844237208366, 32152, 31374, 23432, NaN
1473724934.122, -0.0700398683547974, -0.137186005711555, 0.17638972401619, 32163, 31359, 23443, NaN
1473724935.122, -0.0667819455265999, -0.138493046164513, 0.176252737641335, 32148, 31378, 23434, NaN
1473724936.132, -0.0623630024492741, -0.138620287179947, 0.176449507474899, 32136, 31367, 23443, NaN
1473724936.132, -0.0570512861013412, -0.139245226979256, 0.177523463964462, 32167, 31396, 23422, NaN
1473724937.142, -0.0510888583958149, -0.139942973852158, 0.177335932850838, 32161, 31375, 23432, NaN
1473724938.142, -0.0446919836103916, -0.139836594462395, 0.177125588059425, 32133, 31394, 23436, NaN
1473724939.142, -0.0380518138408661, -0.139637634158134, 0.176460266113281, 32150, 31369, 23432, NaN
1473724940.142, -0.0313352048397064, -0.139139458537102, 0.176172450184822, 32157, 31385, 23430, NaN
1473724940.142, -0.024685749784112, -0.1387669891119, 0.175822079181671, 32139, 31375, 23428, NaN
1473724941.15, -0.0182249583303928, -0.139349147677422, 0.175644502043724, 32137, 31388, 23437, NaN
1473724942.15, -0.0120535455644131, -0.138274177908897, 0.175562635064125, 32145, 31378, 23444, NaN
1473724943.15, -0.00625282619148493, -0.138184636831284, 0.175469383597374, 32161, 31379, 23422, NaN
1473724944.15, -0.000886181776877493, -0.138978496193886, 0.175468981266022, 32149, 31373, 23424, NaN
1473724945.15, 0.00399942509829998, -0.139080062508583, 0.17536923289299, 32150, 31363, 23431, NaN
1473724946.15, 0.00837191473692656, -0.139053463935852, 0.176483348011971, 32154, 31377, 23433, NaN
1473724947.15, 0.0122125437483191, -0.139137402176857, 0.176230639219284, 32146, 31388, 23431, NaN
1473724948.15, 0.0155143840238452, -0.139982417225838, 0.176459833979607, 32158, 31385, 23421, NaN
1473724949.15, 0.0182808209210634, -0.139929831027985, 0.177693858742714, 32149, 31361, 23444, NaN
1473724950.15, 0.0205241125077009, -0.139460697770119, 0.178325340151787, 32140, 31371, 23432, NaN
1473724951.15, 0.0222639963030815, -0.139207929372787, 0.178274512290955, 32161, 31388, 23436, NaN
1473724952.15, 0.023526381701231, -0.139955058693886, 0.177919626235962, 32148, 31386, 23436, NaN
1473724953.15, 0.0223516654223204, -0.139028862118721, 0.177784264087677, 32143, 31383, 23441, NaN
1473724954.15, 0.0164925158023834, -0.138489753007889, 0.177648112177849, 32139, 31382, 23437, NaN
1473724955.15, 0.00840280298143625, -0.139504626393318, 0.177946761250496, 32146, 31385, 23427, NaN
1473724956.15, -0.000839325191918761, -0.139792934060097, 0.177975818514824, 32151, 31374, 23445, NaN
1473724957.15, -0.00958929304033518, -0.139607205986977, 0.178111836314201, 32143, 31380, 23428, NaN
1473724958.15, -0.0172004550695419, -0.139806911349297, 0.178980901837349, 32150, 31375, 23429, NaN
1473724959.15, -0.0232858620584011, -0.140031009912491, 0.178654760122299, 32174, 31379, 23425, NaN
1473724960.15, -0.0276695564389229, -0.140271067619324, 0.178542017936707, 32140, 31391, 23432, NaN
1473724961.15, -0.0301320888102055, -0.140370413661003, 0.178504288196564, 32140, 31386, 23435, NaN
1473724962.15, -0.0305312350392342, -0.140904456377029, 0.17909163236618, 32141, 31373, 23420, 165.341262817383
1473724963.16, -0.029053496196866, -0.140790268778801, 0.178749352693558, 32151, 31380, 23441, NaN
1473724964.16, -0.0253802090883255, -0.140791684389114, 0.178205385804176, 32167, 31365, 23434, NaN
1473724964.16, -0.021228464320302, -0.140731275081635, 0.178381770849228, 32150, 31379, 23436, NaN
1473724965.168, -0.0157814547419548, -0.140401899814606, 0.17780214548111, 32142, 31376, 23424, NaN
1473724966.168, -0.00948163401335478, -0.140470951795578, 0.177942231297493, 32143, 31373, 23441, NaN
1473724967.168, -0.00217173295095563, -0.139572724699974, 0.177742704749107, 32138, 31390, 23435, NaN
1473724968.168, 0.00551408855244517, -0.138903632760048, 0.177682012319565, 32160, 31381, 23444, NaN
1473724968.168, 0.0147419450804591, -0.138232007622719, 0.176633566617966, 32145, 31382, 23431, NaN
1473724969.176, 0.0241927932947874, -0.138672560453415, 0.176090121269226, 32153, 31373, 23431, NaN
1473724970.176, 0.0324584729969501, -0.13895770907402, 0.175440549850464, 32133, 31387, 23427, NaN
1473724971.176, 0.0395810827612877, -0.138838723301888, 0.174795851111412, 32152, 31377, 23417, NaN
1473724972.176, 0.0461769625544548, -0.138819575309753, 0.173793360590935, 32139, 31367, 23436, NaN
1473724972.176, 0.0510393120348454, -0.13874714076519, 0.173297524452209, 32138, 31370, 23435, NaN
1473724973.182, 0.0541729256510735, -0.139321759343147, 0.172592207789421, 32143, 31365, 23432, NaN
1473724974.182, 0.0559497624635696, -0.139008730649948, 0.173399433493614, 32162, 31379, 23433, NaN
1473724975.182, 0.0579776242375374, -0.138881787657738, 0.172896936535835, 32145, 31379, 23433, NaN
1473724976.182, 0.0596865899860859, -0.138733342289925, 0.172769889235497, 32138, 31378, 23420, NaN
1473724976.182, 0.061831995844841, -0.13906118273735, 0.172815561294556, 32161, 31372, 23429, NaN
1473724977.186, 0.0659162178635597, -0.138071790337563, 0.172630712389946, 32149, 31366, 23419, NaN
1473724978.186, 0.0742572769522667, -0.138636082410812, 0.172400757670403, 32131, 31379, 23439, NaN
1473724979.166, 0.0856768265366554, -0.137973070144653, 0.172779828310013, 32138, 31371, 23429, NaN
1473724980.166, 0.100347198545933, -0.137878030538559, 0.172548875212669, 32160, 31370, 23424, NaN
1473724981.166, 0.118650496006012, -0.138808220624924, 0.172079727053642, 32156, 31381, 23428, NaN
1473724982.166, 0.139661431312561, -0.138515472412109, 0.172609969973564, 32158, 31366, 23431, NaN
1473724983.166, 0.161695554852486, -0.137695774435997, 0.172941222786903, 32154, 31375, 23431, NaN
1473724984.166, 0.182317644357681, -0.137104153633118, 0.173220336437225, 32136, 31376, 23424, NaN
1473724985.166, 0.145655497908592, -0.136906534433365, 0.172970145940781, 32136, 31385, 23433, NaN
1473724986.166, 0.0878213346004486, -0.136645421385765, 0.173269778490067, 32154, 31388, 23432, NaN
1473724987.166, 0.0383593142032623, -0.136643245816231, 0.173106953501701, 32165, 31370, 23423, NaN
1473724988.166, -0.00332205253653228, -0.136860489845276, 0.173754498362541, 32147, 31384, 23426, NaN
1473724989.174, -0.0378200486302376, -0.136376693844795, 0.173897176980972, 32152, 31382, 23435, NaN
1473724989.174, -0.0657329112291336, -0.136740535497665, 0.173579156398773, 32151, 31380, 23430, NaN
1473724990.182, -0.0876549631357193, -0.136790752410889, 0.173724099993706, 32145, 31380, 23437, NaN
1473724991.182, -0.104171946644783, -0.136978909373283, 0.173620089888573, 32142, 31373, 23442, NaN
1473724992.182, -0.115856520831585, -0.135547697544098, 0.173526033759117, 32164, 31374, 23439, NaN
1473724993.182, -0.123264193534851, -0.135537207126617, 0.173636898398399, 32162, 31371, 23427, NaN
1473724993.182, -0.126929596066475, -0.134853914380074, 0.174502268433571, 32160, 31385, 23436, NaN
1473724994.188, -0.127363219857216, -0.135649785399437, 0.174718767404556, 32151, 31385, 23437, NaN
1473724995.188, -0.125048667192459, -0.137189626693726, 0.174707293510437, 32141, 31383, 23425, NaN
1473724996.188, -0.120440356433392, -0.136440977454185, 0.174634456634521, 32138, 31362, 23433, NaN
1473724997.188, -0.11396174877882, -0.136390641331673, 0.174672409892082, 32147, 31369, 23436, NaN
1473724998.188, -0.106004051864147, -0.136694148182869, 0.174106627702713, 32141, 31390, 23437, NaN
1473724999.188, -0.0969254449009895, -0.136208310723305, 0.174263626337051, 32149, 31378, 23432, NaN
1473725000.188, -0.0870506465435028, -0.135699346661568, 0.17366898059845, 32147, 31375, 23433, NaN
1473725001.188, -0.0766710191965103, -0.135718479752541, 0.173305109143257, 32144, 31381, 23436, NaN
1473725002.188, -0.0660449787974358, -0.135274738073349, 0.173928007483482, 32155, 31377, 23437, NaN
1473725003.188, -0.055398765951395, -0.135257363319397, 0.173974245786667, 32134, 31374, 23433, NaN
1473725004.188, -0.0449275113642216, -0.135184347629547, 0.174268573522568, 32146, 31382, 23439, NaN
1473725005.188, -0.0347965881228447, -0.134841546416283, 0.173979371786118, 32152, 31366, 23441, NaN
1473725006.188, -0.0251431558281183, -0.133817762136459, 0.173139065504074, 32149, 31373, 23437, NaN
1473725007.188, -0.0160778779536486, -0.133660048246384, 0.173657819628716, 32152, 31379, 23419, NaN
1473725008.188, -0.00768681103363633, -0.134127914905548, 0.173851683735847, 32156, 31383, 23422, NaN
1473725009.188, -3.33517891704105e-05, -0.133813709020615, 0.173158004879951, 32154, 31367, 23434, NaN
1473725010.188, 0.00683972146362066, -0.134105145931244, 0.172981053590775, 32156, 31377, 23432, NaN
1473725011.188, 0.0129081914201379, -0.135077893733978, 0.173036083579063, 32159, 31380, 23428, NaN
1473725012.188, 0.0181027892976999, -0.135055139660835, 0.172298520803452, 32152, 31380, 23437, NaN
1473725013.188, 0.0204143840819597, -0.13445258140564, 0.172399953007698, 32154, 31376, 23425, NaN
1473725014.188, 0.0206505414098501, -0.135091930627823, 0.171300828456879, 32150, 31380, 23430, NaN